Time,TemperatureF,DewpointF,PressureIn,WindDirection,WindDirectionDegrees,WindSpeedMPH,WindSpeedGustMPH,Humidity,HourlyPrecipIn,Conditions,Clouds,dailyrainin,SoftwareType,DateUTC
2013-03-05 00:02:00,21.0,20.0,-100.00,WSW,245,0.0,1.0,94,-99.99,,,-99.99,,2013-03-05 05:02:00,
2013-03-05 00:12:00,21.0,20.0,-100.00,WSW,245,0.0,1.0,94,-99.99,,,-99.99,,2013-03-05 05:12:00,
2013-03-05 00:22:00,21.0,20.0,-100.00,WSW,245,0.0,1.0,94,-99.99,,,-99.99,,2013-03-05 05:22:00,
2013-03-05 00:32:00,21.0,20.0,-100.00,WSW,255,0.0,0.0,96,-99.99,,,-99.99,,2013-03-05 05:32:00,
2013-03-05 00:42:00,21.0,20.0,-100.00,WSW,255,0.0,0.0,96,-99.99,,,-99.99,,2013-03-05 05:42:00,
2013-03-05 00:52:00,20.0,20.0,-100.00,WSW,255,0.0,0.0,96,-99.99,,,-99.99,,2013-03-05 05:52:00,
2013-03-05 01:01:00,21.0,20.0,-100.00,WSW,245,0.0,2.0,96,-99.99,,,-99.99,,2013-03-05 06:01:00,
2013-03-05 01:11:00,21.0,20.0,-100.00,WSW,250,0.0,0.0,97,-99.99,,,-99.99,,2013-03-05 06:11:00,
2013-03-05 01:22:00,20.0,20.0,-100.00,WSW,250,0.0,0.0,97,-99.99,,,-99.99,,2013-03-05 06:22:00,
2013-03-05 01:32:00,20.0,20.0,-100.00,WSW,250,0.0,0.0,97,-99.99,,,-99.99,,2013-03-05 06:32:00,
2013-03-05 01:42:00,20.0,19.0,-100.00,WSW,250,0.0,0.0,98,-99.99,,,-99.99,,2013-03-05 06:42:00,
2013-03-05 01:52:00,20.0,20.0,-100.00,WSW,250,0.0,0.0,98,-99.99,,,-99.99,,2013-03-05 06:52:00,
2013-03-05 02:01:00,20.0,19.0,-100.00,WSW,250,0.0,0.0,99,-99.99,,,-99.99,,2013-03-05 07:01:00,
2013-03-05 02:11:00,19.0,19.0,-100.00,WSW,250,0.0,0.0,99,-99.99,,,-99.99,,2013-03-05 07:11:00,
2013-03-05 02:22:00,20.0,20.0,-100.00,WSW,250,0.0,0.0,99,-99.99,,,-99.99,,2013-03-05 07:22:00,
2013-03-05 02:32:00,20.0,20.0,-100.00,WSW,250,0.0,0.0,99,-99.99,,,-99.99,,2013-03-05 07:32:00,
2013-03-05 02:41:00,20.0,20.0,-100.00,NE,35,0.0,1.0,99,-99.99,,,-99.99,,2013-03-05 07:41:00,
2013-03-05 02:51:00,20.0,20.0,-100.00,NE,35,0.0,1.0,99,-99.99,,,-99.99,,2013-03-05 07:51:00,
2013-03-05 03:02:00,22.0,22.0,-100.00,ENE,60,4.0,7.0,99,-99.99,,,-99.99,,2013-03-05 08:02:00,
2013-03-05 03:11:00,22.0,22.0,-100.00,ENE,60,4.0,7.0,99,-99.99,,,-99.99,,2013-03-05 08:11:00,
2013-03-05 03:21:00,21.0,21.0,-100.00,SE,140,0.0,2.0,99,-99.99,,,-99.99,,2013-03-05 08:21:00,
2013-03-05 03:31:00,21.0,21.0,-100.00,East,100,1.0,3.0,99,-99.99,,,-99.99,,2013-03-05 08:31:00,
2013-03-05 03:41:00,21.0,21.0,-100.00,East,100,1.0,3.0,99,-99.99,,,-99.99,,2013-03-05 08:41:00,
2013-03-05 03:52:00,21.0,21.0,-100.00,ENE,70,1.0,2.0,99,-99.99,,,-99.99,,2013-03-05 08:52:00,
2013-03-05 04:01:00,21.0,21.0,-100.00,ESE,110,1.0,3.0,99,-99.99,,,-99.99,,2013-03-05 09:01:00,
2013-03-05 04:11:00,20.0,20.0,-100.00,South,175,0.0,1.0,99,-99.99,,,-99.99,,2013-03-05 09:11:00,
2013-03-05 04:21:00,21.0,20.0,-100.00,ESE,115,0.0,1.0,99,-99.99,,,-99.99,,2013-03-05 09:21:00,
2013-03-05 04:32:00,21.0,21.0,-100.00,East,90,2.0,3.0,99,-99.99,,,-99.99,,2013-03-05 09:32:00,
2013-03-05 04:42:00,21.0,21.0,-100.00,East,95,1.0,4.0,99,-99.99,,,-99.99,,2013-03-05 09:42:00,
2013-03-05 04:52:00,21.0,21.0,-100.00,East,95,2.0,4.0,99,-99.99,,,-99.99,,2013-03-05 09:52:00,
2013-03-05 05:01:00,21.0,21.0,-100.00,East,95,2.0,4.0,99,-99.99,,,-99.99,,2013-03-05 10:01:00,
2013-03-05 05:11:00,20.0,20.0,-100.00,ESE,115,0.0,3.0,99,-99.99,,,-99.99,,2013-03-05 10:11:00,
2013-03-05 05:21:00,20.0,20.0,-100.00,SSE,165,1.0,2.0,99,-99.99,,,-99.99,,2013-03-05 10:21:00,
2013-03-05 05:32:00,20.0,20.0,-100.00,SSE,165,1.0,2.0,99,-99.99,,,-99.99,,2013-03-05 10:32:00,
2013-03-05 05:42:00,20.0,20.0,-100.00,SSE,160,1.0,2.0,99,-99.99,,,-99.99,,2013-03-05 10:42:00,
2013-03-05 05:52:00,20.0,20.0,-100.00,ENE,65,0.0,2.0,99,-99.99,,,-99.99,,2013-03-05 10:52:00,
2013-03-05 06:02:00,20.0,20.0,-100.00,SSE,155,1.0,2.0,100,-99.99,,,-99.99,,2013-03-05 11:02:00,
2013-03-05 06:11:00,20.0,20.0,-100.00,East,100,1.0,3.0,99,-99.99,,,-99.99,,2013-03-05 11:11:00,
2013-03-05 06:22:00,20.0,20.0,-100.00,East,85,1.0,2.0,99,-99.99,,,-99.99,,2013-03-05 11:22:00,
2013-03-05 06:32:00,20.0,20.0,-100.00,East,85,1.0,2.0,99,-99.99,,,-99.99,,2013-03-05 11:32:00,
2013-03-05 06:42:00,20.0,20.0,-100.00,East,100,2.0,4.0,99,-99.99,,,-99.99,,2013-03-05 11:42:00,
2013-03-05 06:52:00,20.0,20.0,-100.00,East,100,2.0,4.0,99,-99.99,,,-99.99,,2013-03-05 11:52:00,
2013-03-05 07:02:00,20.0,20.0,-100.00,East,90,2.0,7.0,99,-99.99,,,-99.99,,2013-03-05 12:02:00,
2013-03-05 07:12:00,20.0,20.0,-100.00,East,95,1.0,5.0,99,-99.99,,,-99.99,,2013-03-05 12:12:00,
2013-03-05 07:22:00,20.0,20.0,-100.00,SSE,160,2.0,4.0,99,-99.99,,,-99.99,,2013-03-05 12:22:00,
2013-03-05 07:32:00,20.0,20.0,-100.00,SSE,160,2.0,4.0,99,-99.99,,,-99.99,,2013-03-05 12:32:00,
2013-03-05 07:42:00,20.0,20.0,-100.00,SSE,150,2.0,6.0,99,-99.99,,,-99.99,,2013-03-05 12:42:00,
2013-03-05 07:52:00,20.0,20.0,-100.00,SSE,150,2.0,6.0,99,-99.99,,,-99.99,,2013-03-05 12:52:00,
2013-03-05 08:02:00,22.0,22.0,-100.00,ESE,120,2.0,4.0,99,-99.99,,,-99.99,,2013-03-05 13:02:00,
2013-03-05 08:12:00,22.0,22.0,-100.00,SE,135,2.0,6.0,99,-99.99,,,-99.99,,2013-03-05 13:12:00,
2013-03-05 08:22:00,22.0,22.0,-100.00,SE,140,4.0,9.0,99,-99.99,,,-99.99,,2013-03-05 13:22:00,
2013-03-05 08:32:00,22.0,22.0,-100.00,SSE,155,4.0,10.0,99,-99.99,,,-99.99,,2013-03-05 13:32:00,
2013-03-05 08:42:00,23.0,23.0,-100.00,SSE,155,6.0,10.0,99,-99.99,,,-99.99,,2013-03-05 13:42:00,
2013-03-05 08:52:00,23.0,23.0,-100.00,SE,145,6.0,10.0,99,-99.99,,,-99.99,,2013-03-05 13:52:00,
2013-03-05 09:02:00,24.0,24.0,-100.00,SSE,150,4.0,10.0,99,-99.99,,,-99.99,,2013-03-05 14:02:00,
2013-03-05 09:11:00,24.0,24.0,-100.00,SSE,160,2.0,10.0,99,-99.99,,,-99.99,,2013-03-05 14:11:00,
2013-03-05 09:22:00,25.0,25.0,-100.00,SE,135,2.0,6.0,99,-99.99,,,-99.99,,2013-03-05 14:22:00,
2013-03-05 09:32:00,26.0,26.0,-100.00,ESE,120,1.0,6.0,99,-99.99,,,-99.99,,2013-03-05 14:32:00,
2013-03-05 09:42:00,25.0,25.0,-100.00,SSE,150,4.0,9.0,99,-99.99,,,-99.99,,2013-03-05 14:42:00,
2013-03-05 09:52:00,25.0,25.0,-100.00,SE,130,4.0,8.0,99,-99.99,,,-99.99,,2013-03-05 14:52:00,
2013-03-05 10:02:00,26.0,26.0,-100.00,NE,40,1.0,7.0,99,-99.99,,,-99.99,,2013-03-05 15:02:00,
2013-03-05 10:11:00,25.0,25.0,-100.00,SE,125,3.0,8.0,99,-99.99,,,-99.99,,2013-03-05 15:11:00,
2013-03-05 10:21:00,26.0,26.0,-100.00,ESE,105,2.0,7.0,99,-99.99,,,-99.99,,2013-03-05 15:21:00,
2013-03-05 10:32:00,27.0,27.0,-100.00,SE,125,4.0,7.0,99,-99.99,,,-99.99,,2013-03-05 15:32:00,
2013-03-05 10:42:00,27.0,27.0,-100.00,SSE,150,3.0,7.0,99,-99.99,,,-99.99,,2013-03-05 15:42:00,
2013-03-05 10:52:00,28.0,28.0,-100.00,SSE,160,2.0,9.0,99,-99.99,,,-99.99,,2013-03-05 15:52:00,
2013-03-05 11:02:00,29.0,29.0,-100.00,ENE,75,1.0,7.0,99,-99.99,,,-99.99,,2013-03-05 16:02:00,
2013-03-05 11:11:00,30.0,30.0,-100.00,South,190,2.0,6.0,98,-99.99,,,-99.99,,2013-03-05 16:11:00,
2013-03-05 11:21:00,30.0,29.0,-100.00,SSW,210,3.0,7.0,95,-99.99,,,-99.99,,2013-03-05 16:21:00,
2013-03-05 11:32:00,31.0,29.0,-100.00,East,100,0.0,6.0,93,-99.99,,,-99.99,,2013-03-05 16:32:00,
2013-03-05 11:42:00,31.0,29.0,-100.00,ESE,105,2.0,6.0,89,-99.99,,,-99.99,,2013-03-05 16:42:00,
2013-03-05 11:51:00,32.0,28.0,-100.00,East,100,4.0,7.0,86,-99.99,,,-99.99,,2013-03-05 16:51:00,
2013-03-05 12:01:00,33.0,28.0,-100.00,SE,135,2.0,9.0,83,-99.99,,,-99.99,,2013-03-05 17:01:00,
2013-03-05 12:11:00,34.0,28.0,-100.00,SSE,150,3.0,7.0,79,-99.99,,,-99.99,,2013-03-05 17:11:00,
2013-03-05 12:21:00,34.0,27.0,-100.00,SE,135,3.0,7.0,75,-99.99,,,-99.99,,2013-03-05 17:21:00,
2013-03-05 12:32:00,35.0,27.0,-100.00,East,95,4.0,7.0,72,-99.99,,,-99.99,,2013-03-05 17:32:00,
2013-03-05 12:42:00,36.0,28.0,-100.00,SE,135,2.0,7.0,70,-99.99,,,-99.99,,2013-03-05 17:42:00,
2013-03-05 12:52:00,36.0,27.0,-100.00,East,85,2.0,6.0,68,-99.99,,,-99.99,,2013-03-05 17:52:00,
2013-03-05 13:02:00,36.0,26.0,-100.00,WNW,290,1.0,7.0,65,-99.99,,,-99.99,,2013-03-05 18:02:00,
2013-03-05 13:11:00,37.0,26.0,-100.00,East,100,3.0,7.0,64,-99.99,,,-99.99,,2013-03-05 18:11:00,
2013-03-05 13:22:00,37.0,25.0,-100.00,East,90,4.0,9.0,61,-99.99,,,-99.99,,2013-03-05 18:22:00,
2013-03-05 13:32:00,37.0,25.0,-100.00,ESE,120,4.0,9.0,61,-99.99,,,-99.99,,2013-03-05 18:32:00,
2013-03-05 13:42:00,37.0,24.0,-100.00,ESE,110,4.0,9.0,57,-99.99,,,-99.99,,2013-03-05 18:42:00,
2013-03-05 13:52:00,38.0,24.0,-100.00,SE,135,4.0,9.0,56,-99.99,,,-99.99,,2013-03-05 18:52:00,
2013-03-05 14:01:00,38.0,23.0,-100.00,SSE,150,2.0,9.0,54,-99.99,,,-99.99,,2013-03-05 19:01:00,
2013-03-05 14:11:00,38.0,23.0,-100.00,East,80,5.0,9.0,52,-99.99,,,-99.99,,2013-03-05 19:11:00,
2013-03-05 14:21:00,38.0,22.0,-100.00,East,95,6.0,11.0,50,-99.99,,,-99.99,,2013-03-05 19:21:00,
2013-03-05 14:32:00,39.0,22.0,-100.00,ESE,105,3.0,11.0,49,-99.99,,,-99.99,,2013-03-05 19:32:00,
2013-03-05 14:42:00,40.0,23.0,-100.00,SE,125,4.0,9.0,49,-99.99,,,-99.99,,2013-03-05 19:42:00,
2013-03-05 14:52:00,40.0,22.0,-100.00,East,90,8.0,12.0,48,-99.99,,,-99.99,,2013-03-05 19:52:00,
2013-03-05 15:01:00,40.0,22.0,-100.00,East,95,5.0,12.0,47,-99.99,,,-99.99,,2013-03-05 20:01:00,
2013-03-05 15:11:00,40.0,21.0,-100.00,ESE,110,6.0,11.0,46,-99.99,,,-99.99,,2013-03-05 20:11:00,
2013-03-05 15:22:00,40.0,20.0,-100.00,SE,135,7.0,12.0,44,-99.99,,,-99.99,,2013-03-05 20:22:00,
2013-03-05 15:32:00,40.0,20.0,-100.00,East,85,2.0,9.0,44,-99.99,,,-99.99,,2013-03-05 20:32:00,
2013-03-05 15:42:00,41.0,20.0,-100.00,East,90,5.0,12.0,43,-99.99,,,-99.99,,2013-03-05 20:42:00,
2013-03-05 15:52:00,41.0,20.0,-100.00,SE,140,7.0,11.0,43,-99.99,,,-99.99,,2013-03-05 20:52:00,
2013-03-05 16:02:00,41.0,21.0,-100.00,SE,145,7.0,10.0,45,-99.99,,,-99.99,,2013-03-05 21:02:00,
2013-03-05 16:11:00,41.0,22.0,-100.00,SSE,160,6.0,10.0,45,-99.99,,,-99.99,,2013-03-05 21:11:00,
2013-03-05 16:22:00,41.0,22.0,-100.00,SSE,160,6.0,12.0,45,-99.99,,,-99.99,,2013-03-05 21:22:00,
2013-03-05 16:32:00,42.0,22.0,-100.00,SE,130,4.0,11.0,46,-99.99,,,-99.99,,2013-03-05 21:32:00,
2013-03-05 16:42:00,41.0,22.0,-100.00,SE,125,6.0,12.0,46,-99.99,,,-99.99,,2013-03-05 21:42:00,
2013-03-05 16:52:00,41.0,22.0,-100.00,ESE,115,6.0,12.0,47,-99.99,,,-99.99,,2013-03-05 21:52:00,
2013-03-05 17:01:00,40.0,22.0,-100.00,East,90,6.0,11.0,48,-99.99,,,-99.99,,2013-03-05 22:01:00,
2013-03-05 17:11:00,41.0,24.0,-100.00,East,95,5.0,9.0,49,-99.99,,,-99.99,,2013-03-05 22:11:00,
2013-03-05 17:22:00,40.0,24.0,-100.00,East,100,4.0,11.0,52,-99.99,,,-99.99,,2013-03-05 22:22:00,
2013-03-05 17:32:00,40.0,25.0,-100.00,SE,130,4.0,10.0,53,-99.99,,,-99.99,,2013-03-05 22:32:00,
2013-03-05 17:42:00,40.0,25.0,-100.00,ESE,115,4.0,10.0,55,-99.99,,,-99.99,,2013-03-05 22:42:00,
2013-03-05 17:52:00,39.0,25.0,-100.00,East,90,4.0,11.0,56,-99.99,,,-99.99,,2013-03-05 22:52:00,
2013-03-05 18:01:00,38.0,25.0,-100.00,ESE,110,3.0,11.0,58,-99.99,,,-99.99,,2013-03-05 23:01:00,
2013-03-05 18:11:00,38.0,26.0,-100.00,East,90,6.0,10.0,61,-99.99,,,-99.99,,2013-03-05 23:11:00,
2013-03-05 18:21:00,38.0,26.0,-100.00,ESE,110,2.0,9.0,62,-99.99,,,-99.99,,2013-03-05 23:21:00,
2013-03-05 18:32:00,37.0,25.0,-100.00,East,80,4.0,9.0,62,-99.99,,,-99.99,,2013-03-05 23:32:00,
2013-03-05 18:42:00,37.0,25.0,-100.00,East,95,5.0,9.0,62,-99.99,,,-99.99,,2013-03-05 23:42:00,
2013-03-05 18:52:00,37.0,25.0,-100.00,ESE,105,4.0,9.0,62,-99.99,,,-99.99,,2013-03-05 23:52:00,
2013-03-05 19:01:00,37.0,25.0,-100.00,ESE,110,4.0,9.0,62,-99.99,,,-99.99,,2013-03-06 00:01:00,
2013-03-05 19:11:00,36.0,25.0,-100.00,ENE,65,5.0,6.0,64,-99.99,,,-99.99,,2013-03-06 00:11:00,
2013-03-05 19:21:00,34.0,27.0,-100.00,ENE,60,6.0,8.0,76,-99.99,,,-99.99,,2013-03-06 00:21:00,
2013-03-05 19:32:00,33.0,29.0,-100.00,ENE,65,6.0,8.0,84,-99.99,,,-99.99,,2013-03-06 00:32:00,
2013-03-05 19:42:00,33.0,29.0,-100.00,ENE,70,6.0,9.0,88,-99.99,,,-99.99,,2013-03-06 00:42:00,
2013-03-05 19:52:00,33.0,30.0,-100.00,East,80,6.0,9.0,90,-99.99,,,-99.99,,2013-03-06 00:52:00,
2013-03-05 20:02:00,33.0,31.0,-100.00,ENE,70,6.0,10.0,92,-99.99,,,-99.99,,2013-03-06 01:02:00,
2013-03-05 20:11:00,33.0,31.0,-100.00,East,85,5.0,9.0,92,-99.99,,,-99.99,,2013-03-06 01:11:00,
2013-03-05 20:21:00,32.0,31.0,-100.00,East,80,6.0,10.0,94,-99.99,,,-99.99,,2013-03-06 01:21:00,
2013-03-05 20:32:00,32.0,31.0,-100.00,ENE,75,7.0,11.0,94,-99.99,,,-99.99,,2013-03-06 01:32:00,
2013-03-05 20:42:00,31.0,30.0,-100.00,ENE,75,7.0,11.0,95,-99.99,,,-99.99,,2013-03-06 01:42:00,
2013-03-05 20:51:00,31.0,30.0,-100.00,East,85,6.0,10.0,96,-99.99,,,-99.99,,2013-03-06 01:51:00,
2013-03-05 21:01:00,31.0,30.0,-100.00,ENE,65,6.0,9.0,96,-99.99,,,-99.99,,2013-03-06 02:01:00,
2013-03-05 21:11:00,31.0,31.0,-100.00,East,90,6.0,9.0,96,-99.99,,,-99.99,,2013-03-06 02:11:00,
2013-03-05 21:22:00,31.0,31.0,-100.00,East,80,6.0,11.0,96,-99.99,,,-99.99,,2013-03-06 02:22:00,
2013-03-05 21:32:00,31.0,31.0,-100.00,ENE,70,5.0,11.0,96,-99.99,,,-99.99,,2013-03-06 02:32:00,
2013-03-05 21:42:00,32.0,31.0,-100.00,East,80,4.0,9.0,96,-99.99,,,-99.99,,2013-03-06 02:42:00,
2013-03-05 21:52:00,32.0,31.0,-100.00,East,80,7.0,12.0,96,-99.99,,,-99.99,,2013-03-06 02:52:00,
2013-03-05 22:02:00,32.0,31.0,-100.00,East,80,7.0,12.0,96,-99.99,,,-99.99,,2013-03-06 03:02:00,
2013-03-05 22:11:00,32.0,31.0,-100.00,East,80,7.0,12.0,96,-99.99,,,-99.99,,2013-03-06 03:11:00,
2013-03-05 22:22:00,32.0,31.0,-100.00,East,90,7.0,10.0,95,-99.99,,,-99.99,,2013-03-06 03:22:00,
2013-03-05 22:32:00,32.0,31.0,-100.00,East,95,6.0,13.0,94,-99.99,,,-99.99,,2013-03-06 03:32:00,
2013-03-05 22:42:00,33.0,31.0,-100.00,East,80,6.0,13.0,93,-99.99,,,-99.99,,2013-03-06 03:42:00,
2013-03-05 22:52:00,33.0,31.0,-100.00,East,90,6.0,12.0,93,-99.99,,,-99.99,,2013-03-06 03:52:00,
2013-03-05 23:02:00,33.0,31.0,-100.00,East,85,7.0,12.0,92,-99.99,,,-99.99,,2013-03-06 04:02:00,
2013-03-05 23:11:00,33.0,31.0,-100.00,East,90,8.0,15.0,91,-99.99,,,-99.99,,2013-03-06 04:11:00,
2013-03-05 23:22:00,33.0,31.0,-100.00,East,100,8.0,12.0,89,-99.99,,,-99.99,,2013-03-06 04:22:00,
2013-03-05 23:32:00,34.0,30.0,-100.00,East,100,7.0,14.0,87,-99.99,,,-99.99,,2013-03-06 04:32:00,
2013-03-05 23:42:00,34.0,30.0,-100.00,ESE,105,7.0,15.0,86,-99.99,,,-99.99,,2013-03-06 04:42:00,
2013-03-05 23:52:00,34.0,30.0,-100.00,ESE,105,7.0,12.0,85,-99.99,,,-99.99,,2013-03-06 04:52:00,